Time,TemperatureF,DewpointF,PressureIn,WindDirection,WindDirectionDegrees,WindSpeedMPH,WindSpeedGustMPH,Humidity,HourlyPrecipIn,Conditions,Clouds,dailyrainin,SolarRadiationWatts/m^2,SoftwareType,DateUTC
2013-01-14 00:03:00,2.0,-3.0,-100.00,WSW,240,4.0,6.0,80,0.00,,,0.00,0.000000,,2013-01-14 06:03:00,
2013-01-14 00:12:00,2.0,-3.0,-100.00,WSW,240,4.0,6.0,80,0.00,,,0.00,0.000000,,2013-01-14 06:12:00,
2013-01-14 00:20:00,1.0,-3.0,-100.00,SW,214,3.0,5.0,82,0.00,,,0.00,0.000000,,2013-01-14 06:20:00,
2013-01-14 00:43:00,1.0,-3.0,-100.00,SW,214,3.0,5.0,82,0.00,,,0.00,0.000000,,2013-01-14 06:43:00,
2013-01-14 00:53:00,1.0,-3.0,-100.00,SW,214,3.0,5.0,82,0.00,,,0.00,0.000000,,2013-01-14 06:53:00,
2013-01-14 01:02:00,1.0,-3.0,-100.00,SW,214,3.0,5.0,82,0.00,,,0.00,0.000000,,2013-01-14 07:02:00,
2013-01-14 01:12:00,1.0,-3.0,-100.00,SW,214,3.0,5.0,82,0.00,,,0.00,0.000000,,2013-01-14 07:12:00,
2013-01-14 01:20:00,0.0,-4.0,-100.00,SW,222,3.0,5.0,82,0.00,,,0.00,0.000000,,2013-01-14 07:20:00,
2013-01-14 01:43:00,0.0,-4.0,-100.00,SW,222,3.0,5.0,82,0.00,,,0.00,0.000000,,2013-01-14 07:43:00,
2013-01-14 01:53:00,0.0,-4.0,-100.00,SW,222,3.0,5.0,82,0.00,,,0.00,0.000000,,2013-01-14 07:53:00,
2013-01-14 02:02:00,0.0,-4.0,-100.00,SW,222,3.0,5.0,82,0.00,,,0.00,0.000000,,2013-01-14 08:02:00,
2013-01-14 02:12:00,0.0,-4.0,-100.00,SW,222,3.0,5.0,82,0.00,,,0.00,0.000000,,2013-01-14 08:12:00,
2013-01-14 02:20:00,-1.0,-5.0,-100.00,SW,224,3.0,5.0,82,0.00,,,0.00,0.000000,,2013-01-14 08:20:00,
2013-01-14 02:43:00,-1.0,-5.0,-100.00,SW,224,3.0,5.0,82,0.00,,,0.00,0.000000,,2013-01-14 08:43:00,
2013-01-14 02:53:00,-1.0,-5.0,-100.00,SW,224,3.0,5.0,82,0.00,,,0.00,0.000000,,2013-01-14 08:53:00,
2013-01-14 03:02:00,-1.0,-5.0,-100.00,SW,224,3.0,5.0,82,0.00,,,0.00,0.000000,,2013-01-14 09:02:00,
2013-01-14 03:12:00,-1.0,-5.0,-100.00,SW,224,3.0,5.0,82,0.00,,,0.00,0.000000,,2013-01-14 09:12:00,
2013-01-14 03:20:00,1.0,-3.0,-100.00,WSW,243,2.0,5.0,81,0.00,,,0.00,0.000000,,2013-01-14 09:20:00,
2013-01-14 03:43:00,1.0,-3.0,-100.00,WSW,243,2.0,5.0,81,0.00,,,0.00,0.000000,,2013-01-14 09:43:00,
2013-01-14 03:53:00,1.0,-3.0,-100.00,WSW,243,2.0,5.0,81,0.00,,,0.00,0.000000,,2013-01-14 09:53:00,
2013-01-14 04:02:00,1.0,-3.0,-100.00,WSW,243,2.0,5.0,81,0.00,,,0.00,0.000000,,2013-01-14 10:02:00,
2013-01-14 04:12:00,1.0,-3.0,-100.00,WSW,243,2.0,5.0,81,0.00,,,0.00,0.000000,,2013-01-14 10:12:00,
2013-01-14 04:20:00,1.0,-4.0,-100.00,WNW,282,4.0,6.0,80,0.00,,,0.00,0.000000,,2013-01-14 10:20:00,
2013-01-14 04:43:00,1.0,-4.0,-100.00,WNW,282,4.0,6.0,80,0.00,,,0.00,0.000000,,2013-01-14 10:43:00,
2013-01-14 04:53:00,1.0,-4.0,-100.00,WNW,282,4.0,6.0,80,0.00,,,0.00,0.000000,,2013-01-14 10:53:00,
2013-01-14 05:02:00,1.0,-4.0,-100.00,WNW,282,4.0,6.0,80,0.00,,,0.00,0.000000,,2013-01-14 11:02:00,
2013-01-14 05:12:00,1.0,-4.0,-100.00,WNW,282,4.0,6.0,80,0.00,,,0.00,0.000000,,2013-01-14 11:12:00,
2013-01-14 05:20:00,0.0,-5.0,-100.00,West,266,4.0,7.0,79,0.00,,,0.00,0.000000,,2013-01-14 11:20:00,
2013-01-14 05:43:00,0.0,-5.0,-100.00,West,266,4.0,7.0,79,0.00,,,0.00,0.000000,,2013-01-14 11:43:00,
2013-01-14 05:53:00,0.0,-5.0,-100.00,West,266,4.0,7.0,79,0.00,,,0.00,0.000000,,2013-01-14 11:53:00,
2013-01-14 06:03:00,0.0,-5.0,-100.00,West,266,4.0,7.0,79,0.00,,,0.00,0.000000,,2013-01-14 12:03:00,
2013-01-14 06:12:00,0.0,-5.0,-100.00,West,266,4.0,7.0,79,0.00,,,0.00,0.000000,,2013-01-14 12:12:00,
2013-01-14 06:20:00,-2.0,-7.0,-100.00,SSW,204,3.0,5.0,79,0.00,,,0.00,0.000000,,2013-01-14 12:20:00,
2013-01-14 06:43:00,-2.0,-7.0,-100.00,SSW,204,3.0,5.0,79,0.00,,,0.00,0.000000,,2013-01-14 12:43:00,
2013-01-14 06:53:00,-2.0,-7.0,-100.00,SSW,204,3.0,5.0,79,0.00,,,0.00,0.000000,,2013-01-14 12:53:00,
2013-01-14 07:03:00,-2.0,-7.0,-100.00,SSW,204,3.0,5.0,79,0.00,,,0.00,0.000000,,2013-01-14 13:03:00,
2013-01-14 07:12:00,-2.0,-7.0,-100.00,SSW,204,3.0,5.0,79,0.00,,,0.00,0.000000,,2013-01-14 13:12:00,
2013-01-14 07:20:00,-3.0,-8.0,-100.00,WSW,258,4.0,5.0,80,0.00,,,0.00,0.000000,,2013-01-14 13:20:00,
2013-01-14 07:43:00,-3.0,-8.0,-100.00,WSW,258,4.0,5.0,80,0.00,,,0.00,0.000000,,2013-01-14 13:43:00,
2013-01-14 07:53:00,-3.0,-8.0,-100.00,WSW,258,4.0,5.0,80,0.00,,,0.00,0.000000,,2013-01-14 13:53:00,
2013-01-14 08:03:00,-3.0,-8.0,-100.00,WSW,258,4.0,5.0,80,0.00,,,0.00,0.000000,,2013-01-14 14:03:00,
2013-01-14 08:13:00,-3.0,-8.0,-100.00,WSW,258,4.0,5.0,80,0.00,,,0.00,0.000000,,2013-01-14 14:13:00,
2013-01-14 08:20:00,-3.0,-8.0,-100.00,WSW,246,3.0,4.0,79,0.00,,,0.00,9.000000,,2013-01-14 14:20:00,
2013-01-14 08:43:00,-3.0,-8.0,-100.00,WSW,246,3.0,4.0,79,0.00,,,0.00,9.000000,,2013-01-14 14:43:00,
2013-01-14 08:53:00,-3.0,-8.0,-100.00,WSW,246,3.0,4.0,79,0.00,,,0.00,9.000000,,2013-01-14 14:53:00,
2013-01-14 09:03:00,-3.0,-8.0,-100.00,WSW,246,3.0,4.0,79,0.00,,,0.00,9.000000,,2013-01-14 15:03:00,
2013-01-14 09:12:00,-3.0,-8.0,-100.00,WSW,246,3.0,4.0,79,0.00,,,0.00,9.000000,,2013-01-14 15:12:00,
2013-01-14 09:20:00,2.0,-4.0,-100.00,WSW,251,5.0,7.0,75,0.00,,,-99.99,115.000000,,2013-01-14 15:20:00,
2013-01-14 09:43:00,2.0,-4.0,-100.00,WSW,251,5.0,7.0,75,0.00,,,-99.99,115.000000,,2013-01-14 15:43:00,
2013-01-14 09:53:00,2.0,-4.0,-100.00,WSW,251,5.0,7.0,75,0.00,,,-99.99,115.000000,,2013-01-14 15:53:00,
2013-01-14 10:03:00,2.0,-4.0,-100.00,WSW,251,5.0,7.0,75,0.00,,,-99.99,115.000000,,2013-01-14 16:03:00,
2013-01-14 10:12:00,2.0,-4.0,-100.00,WSW,251,5.0,7.0,75,0.00,,,-99.99,115.000000,,2013-01-14 16:12:00,
2013-01-14 10:20:00,5.0,-2.0,-100.00,WSW,249,4.0,7.0,71,0.00,,,0.00,244.000000,,2013-01-14 16:20:00,
2013-01-14 10:43:00,5.0,-2.0,-100.00,WSW,249,4.0,7.0,71,0.00,,,0.00,244.000000,,2013-01-14 16:43:00,
2013-01-14 10:53:00,5.0,-2.0,-100.00,WSW,249,4.0,7.0,71,0.00,,,0.00,244.000000,,2013-01-14 16:53:00,
2013-01-14 11:03:00,5.0,-2.0,-100.00,WSW,249,4.0,7.0,71,0.00,,,0.00,244.000000,,2013-01-14 17:03:00,
2013-01-14 11:12:00,5.0,-2.0,-100.00,WSW,249,4.0,7.0,71,0.00,,,0.00,244.000000,,2013-01-14 17:12:00,
2013-01-14 11:20:00,7.0,-2.0,-100.00,WSW,252,6.0,8.0,65,0.00,,,0.00,352.000000,,2013-01-14 17:20:00,
2013-01-14 11:43:00,7.0,-2.0,-100.00,WSW,252,6.0,8.0,65,0.00,,,0.00,352.000000,,2013-01-14 17:43:00,
2013-01-14 11:54:00,7.0,-2.0,-100.00,WSW,252,6.0,8.0,65,0.00,,,0.00,352.000000,,2013-01-14 17:54:00,
2013-01-14 12:03:00,7.0,-2.0,-100.00,WSW,252,6.0,8.0,65,0.00,,,0.00,352.000000,,2013-01-14 18:03:00,
2013-01-14 12:12:00,7.0,-2.0,-100.00,WSW,252,6.0,8.0,65,0.00,,,0.00,352.000000,,2013-01-14 18:12:00,
2013-01-14 12:20:00,9.0,-2.0,-100.00,West,266,7.0,12.0,60,0.00,,,0.00,411.000000,,2013-01-14 18:20:00,
2013-01-14 12:43:00,9.0,-2.0,-100.00,West,266,7.0,12.0,60,0.00,,,0.00,411.000000,,2013-01-14 18:43:00,
2013-01-14 12:53:00,9.0,-2.0,-100.00,West,266,7.0,12.0,60,0.00,,,0.00,411.000000,,2013-01-14 18:53:00,
2013-01-14 13:03:00,9.0,-2.0,-100.00,West,266,7.0,12.0,60,0.00,,,0.00,411.000000,,2013-01-14 19:03:00,
2013-01-14 13:12:00,9.0,-2.0,-100.00,West,266,7.0,12.0,60,0.00,,,0.00,411.000000,,2013-01-14 19:12:00,
2013-01-14 13:20:00,10.0,-2.0,-100.00,West,270,9.0,13.0,57,0.00,,,0.00,410.000000,,2013-01-14 19:20:00,
2013-01-14 13:43:00,10.0,-2.0,-100.00,West,270,9.0,13.0,57,0.00,,,0.00,410.000000,,2013-01-14 19:43:00,
2013-01-14 13:53:00,10.0,-2.0,-100.00,West,270,9.0,13.0,57,0.00,,,0.00,410.000000,,2013-01-14 19:53:00,
2013-01-14 14:03:00,10.0,-2.0,-100.00,West,270,9.0,13.0,57,0.00,,,0.00,410.000000,,2013-01-14 20:03:00,
2013-01-14 14:13:00,10.0,-2.0,-100.00,West,270,9.0,13.0,57,0.00,,,0.00,410.000000,,2013-01-14 20:13:00,
2013-01-14 14:20:00,12.0,-1.0,-100.00,West,259,7.0,12.0,55,0.00,,,0.00,356.000000,,2013-01-14 20:20:00,
2013-01-14 14:43:00,12.0,-1.0,-100.00,West,259,7.0,12.0,55,0.00,,,0.00,356.000000,,2013-01-14 20:43:00,
2013-01-14 14:53:00,12.0,-1.0,-100.00,West,259,7.0,12.0,55,0.00,,,0.00,356.000000,,2013-01-14 20:53:00,
2013-01-14 15:03:00,12.0,-1.0,-100.00,West,259,7.0,12.0,55,0.00,,,0.00,356.000000,,2013-01-14 21:03:00,
2013-01-14 15:12:00,12.0,-1.0,-100.00,West,259,7.0,12.0,55,0.00,,,0.00,356.000000,,2013-01-14 21:12:00,
2013-01-14 15:20:00,13.0,0.0,-100.00,SSW,194,5.0,10.0,55,0.00,,,0.00,253.000000,,2013-01-14 21:20:00,
2013-01-14 15:43:00,13.0,0.0,-100.00,SSW,194,5.0,10.0,55,0.00,,,0.00,253.000000,,2013-01-14 21:43:00,
2013-01-14 15:53:00,13.0,0.0,-100.00,SSW,194,5.0,10.0,55,0.00,,,0.00,253.000000,,2013-01-14 21:53:00,
2013-01-14 16:03:00,13.0,0.0,-100.00,SSW,194,5.0,10.0,55,0.00,,,0.00,253.000000,,2013-01-14 22:03:00,
2013-01-14 16:12:00,13.0,0.0,-100.00,SSW,194,5.0,10.0,55,0.00,,,0.00,253.000000,,2013-01-14 22:12:00,
2013-01-14 16:20:00,11.0,-1.0,-100.00,SSW,196,4.0,8.0,58,0.00,,,0.00,112.000000,,2013-01-14 22:20:00,
2013-01-14 16:43:00,11.0,-1.0,-100.00,SSW,196,4.0,8.0,58,0.00,,,0.00,112.000000,,2013-01-14 22:43:00,
2013-01-14 16:53:00,11.0,-1.0,-100.00,SSW,196,4.0,8.0,58,0.00,,,0.00,112.000000,,2013-01-14 22:53:00,
2013-01-14 17:03:00,11.0,-1.0,-100.00,SSW,196,4.0,8.0,58,0.00,,,0.00,112.000000,,2013-01-14 23:03:00,
2013-01-14 17:12:00,11.0,-1.0,-100.00,SSW,196,4.0,8.0,58,0.00,,,0.00,112.000000,,2013-01-14 23:12:00,
2013-01-14 17:20:00,8.0,-1.0,-100.00,South,187,5.0,8.0,67,0.00,,,0.00,11.000000,,2013-01-14 23:20:00,
2013-01-14 17:43:00,8.0,-1.0,-100.00,South,187,5.0,8.0,67,0.00,,,0.00,11.000000,,2013-01-14 23:43:00,
2013-01-14 17:53:00,8.0,-1.0,-100.00,South,187,5.0,8.0,67,0.00,,,0.00,11.000000,,2013-01-14 23:53:00,
2013-01-14 18:03:00,8.0,-1.0,-100.00,South,187,5.0,8.0,67,0.00,,,0.00,11.000000,,2013-01-15 00:03:00,
2013-01-14 18:12:00,8.0,-1.0,-100.00,South,187,5.0,8.0,67,0.00,,,0.00,11.000000,,2013-01-15 00:12:00,
2013-01-14 18:20:00,8.0,0.0,-100.00,South,183,5.0,9.0,68,0.00,,,0.00,0.000000,,2013-01-15 00:20:00,
2013-01-14 18:43:00,8.0,0.0,-100.00,South,183,5.0,9.0,68,0.00,,,0.00,0.000000,,2013-01-15 00:43:00,
2013-01-14 18:53:00,8.0,0.0,-100.00,South,183,5.0,9.0,68,0.00,,,0.00,0.000000,,2013-01-15 00:53:00,
2013-01-14 19:02:00,8.0,0.0,-100.00,South,183,5.0,9.0,68,0.00,,,0.00,0.000000,,2013-01-15 01:02:00,
2013-01-14 19:12:00,8.0,0.0,-100.00,South,183,5.0,9.0,68,0.00,,,0.00,0.000000,,2013-01-15 01:12:00,
2013-01-14 19:20:00,8.0,0.0,-100.00,South,173,4.0,8.0,70,0.00,,,0.00,0.000000,,2013-01-15 01:20:00,
2013-01-14 19:43:00,8.0,0.0,-100.00,South,173,4.0,8.0,70,0.00,,,0.00,0.000000,,2013-01-15 01:43:00,
2013-01-14 19:52:00,8.0,0.0,-100.00,South,173,4.0,8.0,70,0.00,,,0.00,0.000000,,2013-01-15 01:52:00,
2013-01-14 20:02:00,8.0,0.0,-100.00,South,173,4.0,8.0,70,0.00,,,0.00,0.000000,,2013-01-15 02:02:00,
2013-01-14 20:12:00,8.0,0.0,-100.00,South,173,4.0,8.0,70,0.00,,,0.00,0.000000,,2013-01-15 02:12:00,
2013-01-14 20:20:00,9.0,2.0,-100.00,South,185,5.0,8.0,72,0.00,,,0.00,0.000000,,2013-01-15 02:20:00,
2013-01-14 20:43:00,9.0,2.0,-100.00,South,185,5.0,8.0,72,0.00,,,0.00,0.000000,,2013-01-15 02:43:00,
2013-01-14 20:53:00,9.0,2.0,-100.00,South,185,5.0,8.0,72,0.00,,,0.00,0.000000,,2013-01-15 02:53:00,
2013-01-14 21:02:00,9.0,2.0,-100.00,South,185,5.0,8.0,72,0.00,,,0.00,0.000000,,2013-01-15 03:02:00,
2013-01-14 21:12:00,9.0,2.0,-100.00,South,185,5.0,8.0,72,0.00,,,0.00,0.000000,,2013-01-15 03:12:00,
2013-01-14 21:20:00,9.0,2.0,-100.00,SSW,198,4.0,9.0,73,0.00,,,0.00,0.000000,,2013-01-15 03:20:00,
2013-01-14 21:43:00,9.0,2.0,-100.00,SSW,198,4.0,9.0,73,0.00,,,0.00,0.000000,,2013-01-15 03:43:00,
2013-01-14 21:53:00,9.0,2.0,-100.00,SSW,198,4.0,9.0,73,0.00,,,0.00,0.000000,,2013-01-15 03:53:00,
2013-01-14 22:02:00,9.0,2.0,-100.00,SSW,198,4.0,9.0,73,0.00,,,0.00,0.000000,,2013-01-15 04:02:00,
2013-01-14 22:12:00,9.0,2.0,-100.00,SSW,198,4.0,9.0,73,0.00,,,0.00,0.000000,,2013-01-15 04:12:00,
2013-01-14 22:20:00,9.0,3.0,-100.00,SE,130,5.0,7.0,75,0.00,,,0.00,0.000000,,2013-01-15 04:20:00,
2013-01-14 22:42:00,9.0,3.0,-100.00,SE,130,5.0,7.0,75,0.00,,,0.00,0.000000,,2013-01-15 04:42:00,
2013-01-14 22:52:00,9.0,3.0,-100.00,SE,130,5.0,7.0,75,0.00,,,0.00,0.000000,,2013-01-15 04:52:00,
2013-01-14 23:03:00,9.0,3.0,-100.00,SE,130,5.0,7.0,75,0.00,,,0.00,0.000000,,2013-01-15 05:03:00,
2013-01-14 23:12:00,9.0,3.0,-100.00,SE,130,5.0,7.0,75,0.00,,,0.00,0.000000,,2013-01-15 05:12:00,
2013-01-14 23:20:00,9.0,3.0,-100.00,SSE,148,2.0,6.0,75,0.00,,,0.00,0.000000,,2013-01-15 05:20:00,
2013-01-14 23:42:00,9.0,3.0,-100.00,SSE,148,2.0,6.0,75,0.00,,,0.00,0.000000,,2013-01-15 05:42:00,
2013-01-14 23:53:00,9.0,3.0,-100.00,SSE,148,2.0,6.0,75,0.00,,,0.00,0.000000,,2013-01-15 05:53:00,